Regional Weather Roundup
Issued by NWS

Home | Current Version | Previous Version | Text Only | Print | Product List | Glossary Off
Versions: 1 2 3 4 5 6 7 8 9 10 11 12 13 14 15 16 17 18 19 20 21 22 23 24 25 26 27 28 29 30 31 32 33 34 35 36 37 38 39 40 41 42 43 44 45 46 47 48 49 50

636
ASUS43 KLMK 181810
RWRKY
KENTUCKY REGIONAL WEATHER ROUNDUP
NATIONAL WEATHER SERVICE LOUISVILLE KY
200 PM EDT FRI AUG 18 2017

NOTE "FAIR" INDICATES FEW OR NO CLOUDS BELOW 12,000 FEET
WITH NO SIGNIFICANT WEATHER AND/OR OBSTRUCTIONS TO VISIBILITY.

KYZ001>023-026-027-061>063-070>075-181900-
WESTERN AND SOUTH CENTRAL KENTUCKY

CITY           SKY/WX    TMP DP  RH WIND       PRES   REMARKS
PADUCAH        SUNNY     87  62  43 W8G18     29.99F
HENDERSON      MOSUNNY   82  66  58 NW10G16   29.98F
OWENSBORO      MOSUNNY   83  65  54 NW13G21   29.98S
HOPKINSVILLE   SUNNY     84  64  52 W13       29.99F
BOWLING GREEN  PTSUNNY   84  65  52 NW9       29.98F
GLASGOW        MOSUNNY   83  64  51 W8        29.98F
$$

KYZ024-025-028>034-038-045-046-053-181900-
NORTH CENTRAL KENTUCKY

CITY           SKY/WX    TMP DP  RH WIND       PRES   REMARKS
LOUISVILLE/SDF MOSUNNY   86  64  47 W10       29.94S
LOUISVILLE/LOU MOSUNNY   85  63  47 W14G21    29.94F
FORT KNOX      MOSUNNY   84  63  49 W9G18     29.95F
$$

KYZ035>037-039>044-047>052-055>060-089>105-181900-
NORTHEAST KENTUCKY

CITY           SKY/WX    TMP DP  RH WIND       PRES   REMARKS
LEXINGTON      MOSUNNY   83  64  52 W13       29.96S
COVINGTON      PTSUNNY   83  67  58 W10       29.93S
FRANKFORT      MOSUNNY   84  62  47 SW10G17   29.94S
$$

KYZ054-064>069-076>088-106>120-181900-
SOUTHEAST KENTUCKY

CITY           SKY/WX    TMP DP  RH WIND       PRES   REMARKS
JACKSON        PTSUNNY   83  73  72 VRB5      29.96S
LONDON         SUNNY     82  67  60 W13       29.98S
SOMERSET       MOSUNNY   81  63  54 W10G20    29.99S
MIDDLESBORO    CLOUDY    83  69  63 W8        29.98S
MONTICELLO     PTCLDY    82  69  64 W13G18    30.00F
$$





USA.gov is the U.S. government's official web portal to all federal, state and local government web resources and services.